Time,TemperatureF,DewpointF,PressureIn,WindDirection,WindDirectionDegrees,WindSpeedMPH,WindSpeedGustMPH,Humidity,HourlyPrecipIn,Conditions,Clouds,dailyrainin,SoftwareType,DateUTC
2013-07-08 00:01:00,78.8,74.3,29.95,SE,143,2.3,2.3,86,0.00,RA,,0.00,WeatherDisplay:10.37,2013-07-08 05:01:00,
2013-07-08 00:06:00,78.8,74.3,29.95,ESE,122,3.5,3.5,86,0.00,RA,,0.00,WeatherDisplay:10.37,2013-07-08 05:06:00,
2013-07-08 00:11:00,78.7,74.2,29.95,SE,132,3.5,3.5,86,0.00,CLR,,0.00,WeatherDisplay:10.37,2013-07-08 05:11:00,
2013-07-08 00:16:00,78.6,74.1,29.95,SE,129,3.5,3.5,86,0.00,CLR,,0.00,WeatherDisplay:10.37,2013-07-08 05:16:00,
2013-07-08 00:21:00,78.6,74.1,29.95,SE,124,2.3,0.0,86,0.00,CLR,,0.00,WeatherDisplay:10.37,2013-07-08 05:21:00,
2013-07-08 00:26:00,78.5,74.0,29.95,ESE,117,0.0,0.0,86,0.00,CLR,,0.00,WeatherDisplay:10.37,2013-07-08 05:26:00,
2013-07-08 00:31:00,78.4,73.9,29.96,ESE,116,0.0,0.0,86,0.00,CLR,,0.00,WeatherDisplay:10.37,2013-07-08 05:31:00,
2013-07-08 00:36:00,78.4,74.2,29.96,ESE,112,0.0,0.0,87,0.00,CLR,,0.00,WeatherDisplay:10.37,2013-07-08 05:36:00,
2013-07-08 00:41:00,78.2,74.0,29.96,East,97,0.0,0.0,87,0.00,CLR,,0.00,WeatherDisplay:10.37,2013-07-08 05:41:00,
2013-07-08 00:46:00,78.2,74.0,29.96,ESE,122,3.5,3.5,87,0.00,CLR,,0.00,WeatherDisplay:10.37,2013-07-08 05:46:00,
2013-07-08 00:51:00,78.0,74.2,29.96,ESE,110,3.0,3.0,88,0.00,CLR,,0.00,WeatherDisplay:10.37,2013-07-08 05:51:00,
2013-07-08 00:56:00,77.9,74.1,29.96,SE,129,3.5,3.5,88,0.00,CLR,,0.00,WeatherDisplay:10.37,2013-07-08 05:56:00,
2013-07-08 01:01:00,77.7,73.9,29.96,SE,125,3.5,3.5,88,0.00,CLR,,0.00,WeatherDisplay:10.37,2013-07-08 06:01:00,
2013-07-08 01:06:00,77.6,73.8,29.96,ESE,121,6.9,6.9,88,0.00,CLR,,0.00,WeatherDisplay:10.37,2013-07-08 06:06:00,
2013-07-08 01:11:00,77.6,73.8,29.95,ESE,117,3.5,3.8,88,0.00,CLR,,0.00,WeatherDisplay:10.37,2013-07-08 06:11:00,
2013-07-08 01:16:00,77.5,73.7,29.95,East,96,3.5,3.5,88,0.00,CLR,,0.00,WeatherDisplay:10.37,2013-07-08 06:16:00,
2013-07-08 01:21:00,77.4,73.6,29.95,SE,141,5.8,5.8,88,0.00,CLR,,0.00,WeatherDisplay:10.37,2013-07-08 06:21:00,
2013-07-08 01:26:00,77.3,73.5,29.96,SE,144,3.5,3.5,88,0.00,CLR,,0.00,WeatherDisplay:10.37,2013-07-08 06:26:00,
2013-07-08 01:31:00,77.2,73.7,29.95,SE,142,3.5,3.5,89,0.00,CLR,,0.00,WeatherDisplay:10.37,2013-07-08 06:31:00,
2013-07-08 01:36:00,77.2,73.7,29.95,SE,124,5.0,5.0,89,0.00,CLR,,0.00,WeatherDisplay:10.37,2013-07-08 06:36:00,
2013-07-08 01:41:00,77.1,73.6,29.95,SE,124,2.0,2.0,89,0.00,CLR,,0.00,WeatherDisplay:10.37,2013-07-08 06:41:00,
2013-07-08 01:46:00,77.1,73.6,29.95,SE,124,8.1,8.1,89,0.00,CLR,,0.00,WeatherDisplay:10.37,2013-07-08 06:46:00,
2013-07-08 01:51:00,77.0,73.5,29.95,SE,131,8.1,8.1,89,0.00,CLR,,0.00,WeatherDisplay:10.37,2013-07-08 06:51:00,
2013-07-08 01:56:00,76.9,73.4,29.95,SE,129,5.0,5.0,89,0.00,CLR,,0.00,WeatherDisplay:10.37,2013-07-08 06:56:00,
2013-07-08 02:01:00,76.8,73.6,29.95,SE,134,4.6,4.6,90,0.00,CLR,,0.00,WeatherDisplay:10.37,2013-07-08 07:01:00,
2013-07-08 02:06:00,76.8,73.6,29.95,SE,143,3.5,3.5,90,0.00,CLR,,0.00,WeatherDisplay:10.37,2013-07-08 07:06:00,
2013-07-08 02:11:00,76.7,73.5,29.95,SSE,147,3.5,3.5,90,0.00,CLR,,0.00,WeatherDisplay:10.37,2013-07-08 07:11:00,
2013-07-08 02:16:00,76.6,73.4,29.95,SE,136,5.8,5.8,90,0.00,CLR,,0.00,WeatherDisplay:10.37,2013-07-08 07:16:00,
2013-07-08 02:21:00,76.5,73.7,29.95,SSW,202,5.8,5.8,91,0.00,CLR,,0.00,WeatherDisplay:10.37,2013-07-08 07:21:00,
2013-07-08 02:26:00,76.5,73.7,29.95,SE,129,8.1,8.1,91,0.00,CLR,,0.00,WeatherDisplay:10.37,2013-07-08 07:26:00,
2013-07-08 02:31:00,76.4,73.6,29.95,SE,124,9.2,9.2,91,0.00,CLR,,0.00,WeatherDisplay:10.37,2013-07-08 07:31:00,
2013-07-08 02:36:00,76.4,73.6,29.95,SE,142,6.9,6.9,91,0.00,CLR,,0.00,WeatherDisplay:10.37,2013-07-08 07:36:00,
2013-07-08 02:41:00,76.3,73.5,29.95,SE,143,6.9,6.9,91,0.00,CLR,,0.00,WeatherDisplay:10.37,2013-07-08 07:41:00,
2013-07-08 02:46:00,76.3,73.5,29.95,SE,145,9.2,9.2,91,0.00,CLR,,0.00,WeatherDisplay:10.37,2013-07-08 07:46:00,
2013-07-08 02:51:00,76.3,73.5,29.95,SSE,153,10.4,10.4,91,0.00,CLR,,0.00,WeatherDisplay:10.37,2013-07-08 07:51:00,
2013-07-08 02:56:00,76.2,73.4,29.95,SE,146,10.4,10.4,91,0.00,CLR,,0.00,WeatherDisplay:10.37,2013-07-08 07:56:00,
2013-07-08 03:01:00,76.2,73.4,29.95,SE,143,6.9,6.9,91,0.00,CLR,,0.00,WeatherDisplay:10.37,2013-07-08 08:01:00,
2013-07-08 03:06:00,76.2,73.7,29.96,ESE,120,9.2,9.2,92,0.00,CLR,,0.00,WeatherDisplay:10.37,2013-07-08 08:06:00,
2013-07-08 03:11:00,76.1,73.6,29.96,ESE,121,5.8,5.8,92,0.00,CLR,,0.00,WeatherDisplay:10.37,2013-07-08 08:11:00,
2013-07-08 03:16:00,76.2,73.7,29.96,SE,139,5.8,5.8,92,0.00,CLR,,0.00,WeatherDisplay:10.37,2013-07-08 08:16:00,
2013-07-08 03:21:00,76.3,73.8,29.96,SSW,201,6.9,6.9,92,0.00,CLR,,0.00,WeatherDisplay:10.37,2013-07-08 08:21:00,
2013-07-08 03:26:00,76.3,73.8,29.96,SSE,153,8.1,8.1,92,0.00,CLR,,0.00,WeatherDisplay:10.37,2013-07-08 08:26:00,
2013-07-08 03:31:00,76.4,73.9,29.97,SE,141,9.0,9.0,92,0.00,CLR,,0.00,WeatherDisplay:10.37,2013-07-08 08:31:00,
2013-07-08 03:36:00,76.5,73.7,29.97,SE,146,5.8,5.8,91,0.00,CLR,,0.00,WeatherDisplay:10.37,2013-07-08 08:36:00,
2013-07-08 03:41:00,76.5,73.7,29.97,SE,146,6.9,6.9,91,0.00,CLR,,0.00,WeatherDisplay:10.37,2013-07-08 08:41:00,
2013-07-08 03:46:00,76.5,73.7,29.97,SE,142,9.2,9.2,91,0.00,CLR,,0.00,WeatherDisplay:10.37,2013-07-08 08:46:00,
2013-07-08 03:51:00,76.5,73.7,29.97,SSE,155,5.0,5.0,91,0.00,CLR,,0.00,WeatherDisplay:10.37,2013-07-08 08:51:00,
2013-07-08 03:56:00,76.5,73.7,29.97,South,169,5.8,5.8,91,0.00,CLR,,0.00,WeatherDisplay:10.37,2013-07-08 08:56:00,
2013-07-08 04:01:00,76.5,73.7,29.98,SE,144,5.8,5.8,91,0.00,CLR,,0.00,WeatherDisplay:10.37,2013-07-08 09:01:00,
2013-07-08 04:06:00,76.4,73.6,29.98,SSE,163,4.6,4.6,91,0.00,CLR,,0.00,WeatherDisplay:10.37,2013-07-08 09:06:00,
2013-07-08 04:11:00,76.4,73.6,29.98,SSE,148,6.9,6.9,91,0.00,CLR,,0.00,WeatherDisplay:10.37,2013-07-08 09:11:00,
2013-07-08 04:16:00,76.3,73.5,29.98,South,174,6.9,6.9,91,0.00,CLR,,0.00,WeatherDisplay:10.37,2013-07-08 09:16:00,
2013-07-08 04:21:00,76.2,73.7,29.98,SSE,160,4.6,4.6,92,0.00,CLR,,0.00,WeatherDisplay:10.37,2013-07-08 09:21:00,
2013-07-08 04:26:00,76.2,73.7,29.98,SE,146,5.8,5.8,92,0.00,CLR,,0.00,WeatherDisplay:10.37,2013-07-08 09:26:00,
2013-07-08 04:31:00,76.1,73.6,29.99,SSE,164,5.0,5.0,92,0.00,CLR,,0.00,WeatherDisplay:10.37,2013-07-08 09:31:00,
2013-07-08 04:36:00,76.0,73.5,29.99,SSE,166,4.6,4.6,92,0.00,CLR,,0.00,WeatherDisplay:10.37,2013-07-08 09:36:00,
2013-07-08 04:41:00,76.0,73.5,29.99,SSE,160,2.3,2.3,92,0.00,CLR,,0.00,WeatherDisplay:10.37,2013-07-08 09:41:00,
2013-07-08 04:46:00,75.9,73.4,29.99,SSE,156,3.5,3.5,92,0.00,CLR,,0.00,WeatherDisplay:10.37,2013-07-08 09:46:00,
2013-07-08 04:51:00,75.8,73.3,29.99,SSE,156,1.1,1.1,92,0.00,CLR,,0.00,WeatherDisplay:10.37,2013-07-08 09:51:00,
2013-07-08 04:56:00,75.7,73.2,30.00,SSE,156,3.5,3.5,92,0.00,CLR,,0.00,WeatherDisplay:10.37,2013-07-08 09:56:00,
2013-07-08 05:01:00,75.7,73.5,30.00,SSE,150,1.0,1.0,93,0.00,CLR,,0.00,WeatherDisplay:10.37,2013-07-08 10:01:00,
2013-07-08 05:06:00,75.7,73.5,30.00,SSE,147,1.1,0.0,93,0.00,CLR,,0.00,WeatherDisplay:10.37,2013-07-08 10:06:00,
2013-07-08 05:11:00,75.7,73.5,30.00,SE,145,0.0,0.0,93,0.00,CLR,,0.00,WeatherDisplay:10.37,2013-07-08 10:11:00,
2013-07-08 05:16:00,75.7,73.5,30.00,SE,135,0.0,0.0,93,0.00,CLR,,0.00,WeatherDisplay:10.37,2013-07-08 10:16:00,
2013-07-08 05:21:00,75.7,73.5,30.00,SE,139,0.0,0.0,93,0.00,CLR,,0.00,WeatherDisplay:10.37,2013-07-08 10:21:00,
2013-07-08 05:26:00,75.7,73.5,30.00,SE,140,0.0,0.0,93,0.00,CLR,,0.00,WeatherDisplay:10.37,2013-07-08 10:26:00,
2013-07-08 05:31:00,75.7,73.5,30.00,SE,139,0.0,0.0,93,0.00,CLR,,0.00,WeatherDisplay:10.37,2013-07-08 10:31:00,
2013-07-08 05:36:00,75.7,73.5,30.00,SE,128,0.0,0.0,93,0.00,CLR,,0.00,WeatherDisplay:10.37,2013-07-08 10:36:00,
2013-07-08 05:41:00,75.7,73.5,30.00,SE,128,0.0,0.0,93,0.00,CLR,,0.00,WeatherDisplay:10.37,2013-07-08 10:41:00,
2013-07-08 05:46:00,75.7,73.5,30.00,SE,136,0.0,0.0,93,0.00,CLR,,0.00,WeatherDisplay:10.37,2013-07-08 10:46:00,
2013-07-08 05:51:00,75.8,73.6,30.00,SE,138,0.0,0.0,93,0.00,CLR,,0.00,WeatherDisplay:10.37,2013-07-08 10:51:00,
2013-07-08 05:56:00,75.8,73.6,30.00,SE,139,0.0,0.0,93,0.00,CLR,,0.00,WeatherDisplay:10.37,2013-07-08 10:56:00,
2013-07-08 06:01:00,75.8,73.6,30.01,SE,139,0.0,0.0,93,0.00,CLR,,0.00,WeatherDisplay:10.37,2013-07-08 11:01:00,
2013-07-08 06:06:00,75.8,73.6,30.01,SE,138,0.0,0.0,93,0.00,CLR,,0.00,WeatherDisplay:10.37,2013-07-08 11:06:00,
2013-07-08 06:11:00,75.7,73.5,30.01,SE,138,0.0,0.0,93,0.00,CLR,,0.00,WeatherDisplay:10.37,2013-07-08 11:11:00,
2013-07-08 06:16:00,75.7,73.5,30.01,SE,138,0.0,0.0,93,0.00,CLR,,0.00,WeatherDisplay:10.37,2013-07-08 11:16:00,
2013-07-08 06:21:00,75.7,73.5,30.01,SE,136,0.0,0.0,93,0.00,CLR,,0.00,WeatherDisplay:10.37,2013-07-08 11:21:00,
2013-07-08 06:26:00,75.8,73.6,30.01,SE,139,0.0,0.0,93,0.00,CLR,,0.00,WeatherDisplay:10.37,2013-07-08 11:26:00,
2013-07-08 06:31:00,75.8,73.6,30.01,SE,136,0.0,0.0,93,0.00,CLR,,0.00,WeatherDisplay:10.37,2013-07-08 11:31:00,
2013-07-08 06:36:00,75.9,73.7,30.02,SE,136,0.0,0.0,93,0.00,CLR,,0.00,WeatherDisplay:10.37,2013-07-08 11:36:00,
2013-07-08 06:41:00,75.8,73.6,30.02,SE,138,0.0,0.0,93,0.00,CLR,,0.00,WeatherDisplay:10.37,2013-07-08 11:41:00,
2013-07-08 06:46:00,75.8,73.6,30.02,SE,136,0.0,0.0,93,0.00,CLR,,0.00,WeatherDisplay:10.37,2013-07-08 11:46:00,
2013-07-08 06:51:00,75.8,73.6,30.02,SE,138,0.0,0.0,93,0.00,CLR,,0.00,WeatherDisplay:10.37,2013-07-08 11:51:00,
2013-07-08 06:56:00,75.9,73.7,30.02,SE,138,0.0,0.0,93,0.00,CLR,,0.00,WeatherDisplay:10.37,2013-07-08 11:56:00,
2013-07-08 07:01:00,75.9,73.7,30.02,SE,134,0.0,0.0,93,0.00,CLR,,0.00,WeatherDisplay:10.37,2013-07-08 12:01:00,
2013-07-08 07:06:00,76.0,73.8,30.02,SE,130,0.0,0.0,93,0.00,CLR,,0.00,WeatherDisplay:10.37,2013-07-08 12:06:00,
2013-07-08 07:11:00,76.0,73.8,30.02,SE,128,0.0,0.0,93,0.00,CLR,,0.00,WeatherDisplay:10.37,2013-07-08 12:11:00,
2013-07-08 07:16:00,76.1,73.9,30.02,SE,127,0.0,0.0,93,0.00,CLR,,0.00,WeatherDisplay:10.37,2013-07-08 12:16:00,
2013-07-08 07:21:00,76.1,73.9,30.02,ESE,121,0.0,0.0,93,0.00,CLR,,0.00,WeatherDisplay:10.37,2013-07-08 12:21:00,
2013-07-08 07:26:00,76.2,74.0,30.02,ESE,109,0.0,0.0,93,0.00,CLR,,0.00,WeatherDisplay:10.37,2013-07-08 12:26:00,
2013-07-08 07:31:00,76.2,74.0,30.03,East,89,0.0,0.0,93,0.00,CLR,,0.00,WeatherDisplay:10.37,2013-07-08 12:31:00,
2013-07-08 07:36:00,76.3,74.1,30.03,ESE,108,1.1,1.1,93,0.00,CLR,,0.00,WeatherDisplay:10.37,2013-07-08 12:36:00,
2013-07-08 07:41:00,76.3,74.1,30.03,ESE,109,0.0,0.0,93,0.00,CLR,,0.00,WeatherDisplay:10.37,2013-07-08 12:41:00,
2013-07-08 07:46:00,76.5,74.3,30.03,ESE,114,0.0,0.0,93,0.00,CLR,,0.00,WeatherDisplay:10.37,2013-07-08 12:46:00,
2013-07-08 07:51:00,76.6,74.4,30.03,ESE,115,0.0,0.0,93,0.00,CLR,,0.00,WeatherDisplay:10.37,2013-07-08 12:51:00,
2013-07-08 07:56:00,76.7,74.5,30.03,ESE,105,0.0,0.0,93,0.00,CLR,,0.00,WeatherDisplay:10.37,2013-07-08 12:56:00,
2013-07-08 08:01:00,76.7,74.2,30.03,ESE,122,0.0,0.0,92,0.00,CLR,,0.00,WeatherDisplay:10.37,2013-07-08 13:01:00,
2013-07-08 08:06:00,76.8,74.3,30.04,East,87,0.0,0.0,92,0.00,CLR,,0.00,WeatherDisplay:10.37,2013-07-08 13:06:00,
2013-07-08 08:11:00,77.0,74.5,30.04,East,98,0.0,0.3,92,0.00,CLR,,0.00,WeatherDisplay:10.37,2013-07-08 13:11:00,
2013-07-08 08:16:00,77.1,74.6,30.04,ESE,108,0.0,0.0,92,0.00,CLR,,0.00,WeatherDisplay:10.37,2013-07-08 13:16:00,
2013-07-08 08:21:00,77.2,74.7,30.04,ESE,105,1.1,1.1,92,0.00,CLR,,0.00,WeatherDisplay:10.37,2013-07-08 13:21:00,
2013-07-08 08:26:00,77.4,74.9,30.05,ESE,114,1.1,0.0,92,0.00,CLR,,0.00,WeatherDisplay:10.37,2013-07-08 13:26:00,
2013-07-08 08:32:00,77.6,75.1,30.05,East,96,1.1,1.1,92,0.00,CLR,,0.00,WeatherDisplay:10.37,2013-07-08 13:32:00,
2013-07-08 08:37:00,77.8,75.0,30.05,ESE,121,3.5,3.5,91,0.00,CLR,,0.00,WeatherDisplay:10.37,2013-07-08 13:37:00,
2013-07-08 08:42:00,78.0,75.2,30.05,East,89,4.6,4.6,91,0.00,CLR,,0.00,WeatherDisplay:10.37,2013-07-08 13:42:00,
2013-07-08 08:47:00,78.3,75.1,30.05,SSE,156,3.5,3.5,90,0.00,CLR,,0.00,WeatherDisplay:10.37,2013-07-08 13:47:00,
2013-07-08 08:52:00,78.5,75.3,30.05,SE,142,3.5,3.5,90,0.00,CLR,,0.00,WeatherDisplay:10.37,2013-07-08 13:52:00,
2013-07-08 08:57:00,78.7,75.5,30.05,SE,134,4.6,4.6,90,0.00,CLR,,0.00,WeatherDisplay:10.37,2013-07-08 13:57:00,
2013-07-08 09:02:00,78.9,75.4,30.05,SSE,160,4.6,4.6,89,0.00,CLR,,0.00,WeatherDisplay:10.37,2013-07-08 14:02:00,
2013-07-08 09:07:00,78.9,75.4,30.05,SE,134,3.5,3.5,89,0.00,CLR,,0.00,WeatherDisplay:10.37,2013-07-08 14:07:00,
2013-07-08 09:12:00,79.0,75.5,30.05,SE,145,2.3,2.3,89,0.00,CLR,,0.00,WeatherDisplay:10.37,2013-07-08 14:12:00,
2013-07-08 09:17:00,79.2,75.7,30.05,SSE,154,0.0,0.0,89,0.00,CLR,,0.00,WeatherDisplay:10.37,2013-07-08 14:17:00,
2013-07-08 09:22:00,79.3,75.8,30.06,South,172,4.6,4.6,89,0.00,CLR,,0.00,WeatherDisplay:10.37,2013-07-08 14:22:00,
2013-07-08 09:27:00,79.3,75.4,30.06,SSE,154,3.5,3.5,88,0.00,CLR,,0.00,WeatherDisplay:10.37,2013-07-08 14:27:00,
2013-07-08 09:32:00,79.4,75.5,30.06,SE,134,2.3,0.0,88,0.00,CLR,,0.00,WeatherDisplay:10.37,2013-07-08 14:32:00,
2013-07-08 09:37:00,79.4,75.5,30.06,SE,131,4.6,4.6,88,0.00,CLR,,0.00,WeatherDisplay:10.37,2013-07-08 14:37:00,
2013-07-08 09:42:00,79.5,75.6,30.06,SE,129,3.5,3.5,88,0.00,CLR,,0.00,WeatherDisplay:10.37,2013-07-08 14:42:00,
2013-07-08 09:47:00,79.6,75.7,30.06,SSE,160,3.5,3.5,88,0.00,CLR,,0.00,WeatherDisplay:10.37,2013-07-08 14:47:00,
2013-07-08 09:52:00,79.8,75.9,30.06,SE,136,3.5,3.5,88,0.00,CLR,,0.00,WeatherDisplay:10.37,2013-07-08 14:52:00,
2013-07-08 09:57:00,80.0,75.8,30.06,SE,125,4.6,4.6,87,0.00,CLR,,0.00,WeatherDisplay:10.37,2013-07-08 14:57:00,
2013-07-08 10:02:00,80.0,75.8,30.06,SE,131,6.9,6.9,87,0.00,CLR,,0.00,WeatherDisplay:10.37,2013-07-08 15:02:00,
2013-07-08 10:07:00,80.0,75.8,30.06,ESE,118,6.9,6.9,87,0.00,CLR,,0.00,WeatherDisplay:10.37,2013-07-08 15:07:00,
2013-07-08 10:12:00,80.3,76.1,30.07,South,171,8.1,8.1,87,0.00,CLR,,0.00,WeatherDisplay:10.37,2013-07-08 15:12:00,
2013-07-08 10:17:00,80.7,75.8,30.07,SSE,150,6.9,6.9,85,0.00,CLR,,0.00,WeatherDisplay:10.37,2013-07-08 15:17:00,
2013-07-08 10:22:00,81.0,75.7,30.07,SE,136,10.4,10.4,84,0.00,CLR,,0.00,WeatherDisplay:10.37,2013-07-08 15:22:00,
2013-07-08 10:27:00,81.0,75.7,30.07,SSE,165,10.4,10.4,84,0.00,CLR,,0.00,WeatherDisplay:10.37,2013-07-08 15:27:00,
2013-07-08 10:32:00,81.5,76.2,30.07,ESE,112,5.8,5.8,84,0.00,CLR,,0.00,WeatherDisplay:10.37,2013-07-08 15:32:00,
2013-07-08 10:37:00,81.4,75.7,30.07,SE,133,6.9,6.9,83,0.00,CLR,,0.00,WeatherDisplay:10.37,2013-07-08 15:37:00,
2013-07-08 10:42:00,81.3,75.6,30.07,East,98,9.2,9.2,83,0.00,CLR,,0.00,WeatherDisplay:10.37,2013-07-08 15:42:00,
2013-07-08 10:47:00,81.5,75.8,30.07,ESE,115,9.2,9.2,83,0.00,CLR,,0.00,WeatherDisplay:10.37,2013-07-08 15:47:00,
2013-07-08 10:52:00,81.4,75.4,30.08,SE,127,6.9,6.9,82,0.00,CLR,,0.00,WeatherDisplay:10.37,2013-07-08 15:52:00,
2013-07-08 10:57:00,81.1,75.4,30.08,ESE,105,10.4,10.4,83,0.00,CLR,,0.00,WeatherDisplay:10.37,2013-07-08 15:57:00,
2013-07-08 11:02:00,80.9,74.9,30.08,SE,135,10.4,10.4,82,0.00,CLR,,0.00,WeatherDisplay:10.37,2013-07-08 16:02:00,
2013-07-08 11:07:00,80.9,75.2,30.08,SE,143,10.4,10.4,83,0.00,CLR,,0.00,WeatherDisplay:10.37,2013-07-08 16:07:00,
2013-07-08 11:12:00,80.8,75.2,30.08,ESE,121,7.0,7.0,83,0.00,CLR,,0.00,WeatherDisplay:10.37,2013-07-08 16:12:00,
2013-07-08 11:17:00,80.9,74.9,30.08,SE,135,9.2,9.2,82,0.00,CLR,,0.00,WeatherDisplay:10.37,2013-07-08 16:17:00,
2013-07-08 11:22:00,80.8,74.4,30.08,SE,139,5.8,5.8,81,0.00,CLR,,0.00,WeatherDisplay:10.37,2013-07-08 16:22:00,
2013-07-08 11:27:00,80.9,74.5,30.08,SE,136,5.8,5.8,81,0.00,CLR,,0.00,WeatherDisplay:10.37,2013-07-08 16:27:00,
2013-07-08 11:32:00,81.1,74.3,30.08,SE,146,8.1,8.1,80,0.00,CLR,,0.00,WeatherDisplay:10.37,2013-07-08 16:32:00,
2013-07-08 11:37:00,81.4,73.9,30.08,SE,143,11.5,11.5,78,0.00,CLR,,0.00,WeatherDisplay:10.37,2013-07-08 16:37:00,
2013-07-08 11:42:00,81.3,73.8,30.08,ESE,115,11.5,11.5,78,0.00,CLR,,0.00,WeatherDisplay:10.37,2013-07-08 16:42:00,
2013-07-08 11:47:00,81.4,74.3,30.08,SSE,153,6.9,6.9,79,0.00,CLR,,0.00,WeatherDisplay:10.37,2013-07-08 16:47:00,
2013-07-08 11:53:00,81.5,74.0,30.08,SSE,166,8.1,8.1,78,0.00,CLR,,0.00,WeatherDisplay:10.37,2013-07-08 16:53:00,
2013-07-08 11:58:00,81.4,73.5,30.08,SE,132,9.2,9.2,77,0.00,CLR,,0.00,WeatherDisplay:10.37,2013-07-08 16:58:00,
2013-07-08 12:03:00,81.6,74.1,30.08,SE,132,8.1,8.1,78,0.00,CLR,,0.00,WeatherDisplay:10.37,2013-07-08 17:03:00,
2013-07-08 12:08:00,81.6,74.1,30.08,SSE,163,6.9,6.9,78,0.00,CLR,,0.00,WeatherDisplay:10.37,2013-07-08 17:08:00,
2013-07-08 12:14:00,81.7,73.8,30.07,ESE,116,5.8,6.4,77,0.00,CLR,,0.00,WeatherDisplay:10.37,2013-07-08 17:14:00,
2013-07-08 12:19:00,81.6,73.3,30.07,ESE,121,9.2,9.2,76,0.00,CLR,,0.00,WeatherDisplay:10.37,2013-07-08 17:19:00,
2013-07-08 12:24:00,81.4,73.1,30.07,ESE,103,5.8,5.8,76,0.00,CLR,,0.00,WeatherDisplay:10.37,2013-07-08 17:24:00,
2013-07-08 12:30:00,81.7,73.4,30.07,ESE,122,8.1,8.1,76,0.00,CLR,,0.00,WeatherDisplay:10.37,2013-07-08 17:30:00,
2013-07-08 12:36:00,81.4,73.5,30.07,SSE,157,9.2,9.2,77,0.00,CLR,,0.00,WeatherDisplay:10.37,2013-07-08 17:36:00,
2013-07-08 12:41:00,81.5,74.0,30.07,SE,136,6.9,6.9,78,0.00,CLR,,0.00,WeatherDisplay:10.37,2013-07-08 17:41:00,
2013-07-08 12:46:00,81.8,74.3,30.07,SE,140,4.6,4.6,78,0.00,CLR,,0.00,WeatherDisplay:10.37,2013-07-08 17:46:00,
2013-07-08 12:51:00,82.1,74.2,30.06,SE,131,9.2,9.2,77,0.00,CLR,,0.00,WeatherDisplay:10.37,2013-07-08 17:51:00,
2013-07-08 12:56:00,82.1,74.2,30.06,SSE,166,5.8,5.8,77,0.00,CLR,,0.00,WeatherDisplay:10.37,2013-07-08 17:56:00,
2013-07-08 13:01:00,82.4,74.5,30.06,SSE,167,5.8,5.8,77,0.00,CLR,,0.00,WeatherDisplay:10.37,2013-07-08 18:01:00,
2013-07-08 13:07:00,82.9,74.9,30.06,SE,144,9.2,9.2,77,0.00,CLR,,0.00,WeatherDisplay:10.37,2013-07-08 18:07:00,
2013-07-08 13:12:00,83.6,74.4,30.06,SSE,156,11.5,11.5,74,0.00,CLR,,0.00,WeatherDisplay:10.37,2013-07-08 18:12:00,
2013-07-08 13:17:00,83.9,74.3,30.06,SE,134,11.5,11.5,73,0.00,CLR,,0.00,WeatherDisplay:10.37,2013-07-08 18:17:00,
2013-07-08 13:22:00,84.7,74.3,30.05,SSE,165,8.1,8.4,71,0.00,CLR,,0.00,WeatherDisplay:10.37,2013-07-08 18:22:00,
2013-07-08 13:28:00,85.7,73.9,30.05,South,181,9.2,9.2,68,0.00,CLR,,0.00,WeatherDisplay:10.37,2013-07-08 18:28:00,
2013-07-08 13:33:00,86.1,73.9,30.05,SSE,156,8.0,8.0,67,0.00,CLR,,0.00,WeatherDisplay:10.37,2013-07-08 18:33:00,
2013-07-08 13:38:00,86.0,73.3,30.05,SE,131,11.5,11.5,66,0.00,CLR,,0.00,WeatherDisplay:10.37,2013-07-08 18:38:00,
2013-07-08 13:43:00,86.2,73.5,30.05,SSE,160,8.1,8.1,66,0.00,CLR,,0.00,WeatherDisplay:10.37,2013-07-08 18:43:00,
2013-07-08 13:49:00,85.9,72.8,30.05,SSE,164,5.8,5.8,65,0.00,CLR,,0.00,WeatherDisplay:10.37,2013-07-08 18:49:00,
2013-07-08 13:54:00,86.0,72.9,30.05,SE,146,12.0,12.0,65,0.00,CLR,,0.00,WeatherDisplay:10.37,2013-07-08 18:54:00,
2013-07-08 13:59:00,86.1,73.4,30.04,SSE,165,8.1,8.1,66,0.00,CLR,,0.00,WeatherDisplay:10.37,2013-07-08 18:59:00,
2013-07-08 14:04:00,85.9,73.2,30.04,SE,126,10.4,10.4,66,0.00,CLR,,0.00,WeatherDisplay:10.37,2013-07-08 19:04:00,
2013-07-08 14:10:00,85.7,73.9,30.04,ENE,77,12.7,12.7,68,0.00,CLR,,0.00,WeatherDisplay:10.37,2013-07-08 19:10:00,
2013-07-08 14:15:00,85.1,74.2,30.03,East,101,11.5,11.5,70,0.00,CLR,,0.00,WeatherDisplay:10.37,2013-07-08 19:15:00,
2013-07-08 14:20:00,84.8,74.3,30.03,East,92,10.4,10.4,71,0.00,CLR,,0.00,WeatherDisplay:10.37,2013-07-08 19:20:00,
2013-07-08 14:27:00,84.6,74.2,30.03,ENE,75,6.9,6.9,71,0.00,CLR,,0.00,WeatherDisplay:10.37,2013-07-08 19:27:00,
2013-07-08 14:32:00,84.4,74.0,30.03,East,92,11.5,11.5,71,0.00,CLR,,0.00,WeatherDisplay:10.37,2013-07-08 19:32:00,
2013-07-08 14:38:00,84.0,74.0,30.03,East,79,10.4,10.4,72,0.00,CLR,,0.00,WeatherDisplay:10.37,2013-07-08 19:38:00,
2013-07-08 14:44:00,84.1,74.1,30.03,ENE,61,8.1,8.1,72,0.00,CLR,,0.00,WeatherDisplay:10.37,2013-07-08 19:44:00,
2013-07-08 14:49:00,84.3,74.3,30.03,East,100,9.0,9.0,72,0.00,CLR,,0.00,WeatherDisplay:10.37,2013-07-08 19:49:00,
2013-07-08 14:54:00,84.5,74.5,30.03,East,89,8.1,8.1,72,0.00,CLR,,0.00,WeatherDisplay:10.37,2013-07-08 19:54:00,
2013-07-08 14:59:00,84.4,73.5,30.03,ENE,61,10.4,10.4,70,0.00,CLR,,0.00,WeatherDisplay:10.37,2013-07-08 19:59:00,
2013-07-08 15:04:00,84.7,73.8,30.03,East,98,10.4,10.4,70,0.00,CLR,,0.00,WeatherDisplay:10.37,2013-07-08 20:04:00,
2013-07-08 15:10:00,84.7,73.4,30.03,SE,125,8.1,8.1,69,0.00,CLR,,0.00,WeatherDisplay:10.37,2013-07-08 20:10:00,
2013-07-08 15:15:00,84.6,73.7,30.03,SE,139,5.8,5.8,70,0.00,CLR,,0.00,WeatherDisplay:10.37,2013-07-08 20:15:00,
2013-07-08 15:22:00,83.6,70.6,30.03,West,263,5.8,5.8,65,0.00,CLR,,0.00,WeatherDisplay:10.37,2013-07-08 20:22:00,
2013-07-08 15:28:00,82.7,70.6,30.03,West,269,8.1,8.1,67,0.00,CLR,,0.00,WeatherDisplay:10.37,2013-07-08 20:28:00,
2013-07-08 15:33:00,82.7,70.6,30.03,WSW,246,4.6,4.6,67,0.00,CLR,,0.00,WeatherDisplay:10.37,2013-07-08 20:33:00,
2013-07-08 15:38:00,82.9,69.9,30.03,WSW,242,4.6,4.6,65,0.00,CLR,,0.00,WeatherDisplay:10.37,2013-07-08 20:38:00,
2013-07-08 15:43:00,83.4,69.9,30.02,WSW,255,3.5,3.5,64,0.00,CLR,,0.00,WeatherDisplay:10.37,2013-07-08 20:43:00,
2013-07-08 15:48:00,83.4,69.9,30.02,West,274,3.5,3.5,64,0.00,CLR,,0.00,WeatherDisplay:10.37,2013-07-08 20:48:00,
2013-07-08 15:54:00,83.3,69.8,30.02,NW,307,3.5,3.5,64,0.00,CLR,,0.00,WeatherDisplay:10.37,2013-07-08 20:54:00,
2013-07-08 16:00:00,83.3,69.8,30.02,WNW,298,3.5,3.5,64,0.00,CLR,,0.00,WeatherDisplay:10.37,2013-07-08 21:00:00,
2013-07-08 16:05:00,83.4,69.5,30.02,WNW,284,3.5,3.5,63,0.00,CLR,,0.00,WeatherDisplay:10.37,2013-07-08 21:05:00,
2013-07-08 16:10:00,83.3,69.8,30.02,WNW,292,2.3,2.3,64,0.00,CLR,,0.00,WeatherDisplay:10.37,2013-07-08 21:10:00,
2013-07-08 16:15:00,83.8,70.8,30.02,NNE,21,1.1,0.0,65,0.00,CLR,,0.00,WeatherDisplay:10.37,2013-07-08 21:15:00,
2013-07-08 16:21:00,84.4,71.3,30.01,North,6,2.3,2.3,65,0.00,CLR,,0.00,WeatherDisplay:10.37,2013-07-08 21:21:00,
2013-07-08 16:28:00,84.8,72.2,30.01,North,5,3.5,3.5,66,0.00,CLR,,0.00,WeatherDisplay:10.37,2013-07-08 21:28:00,
2013-07-08 16:33:00,85.1,72.9,30.01,NNW,330,3.5,3.5,67,0.00,CLR,,0.00,WeatherDisplay:10.37,2013-07-08 21:33:00,
2013-07-08 16:39:00,85.3,72.6,30.01,NNE,27,3.5,3.5,66,0.00,CLR,,0.00,WeatherDisplay:10.37,2013-07-08 21:39:00,
2013-07-08 16:45:00,85.2,73.0,30.01,NW,307,3.5,3.5,67,0.00,CLR,,0.00,WeatherDisplay:10.37,2013-07-08 21:45:00,
2013-07-08 16:51:00,85.4,72.7,30.00,NE,43,3.5,3.5,66,0.00,CLR,,0.00,WeatherDisplay:10.37,2013-07-08 21:51:00,
2013-07-08 16:56:00,85.5,73.3,30.00,NNE,30,2.3,2.3,67,0.00,CLR,,0.00,WeatherDisplay:10.37,2013-07-08 21:56:00,
2013-07-08 17:02:00,85.9,73.7,30.00,NNE,15,3.5,3.5,67,0.00,CLR,,0.00,WeatherDisplay:10.37,2013-07-08 22:02:00,
2013-07-08 17:08:00,86.4,73.7,30.00,NNE,25,3.5,3.5,66,0.00,CLR,,0.00,WeatherDisplay:10.37,2013-07-08 22:08:00,
2013-07-08 17:13:00,86.6,73.4,30.00,NE,39,4.6,4.6,65,0.00,CLR,,0.00,WeatherDisplay:10.37,2013-07-08 22:13:00,
2013-07-08 17:18:00,86.8,73.6,30.00,North,360,4.6,4.6,65,0.00,CLR,,0.00,WeatherDisplay:10.37,2013-07-08 22:18:00,
2013-07-08 17:24:00,87.1,73.9,30.00,NNW,338,3.5,3.5,65,0.00,CLR,,0.00,WeatherDisplay:10.37,2013-07-08 22:24:00,
2013-07-08 17:29:00,87.6,74.4,30.00,NE,43,1.1,1.1,65,0.00,CLR,,0.00,WeatherDisplay:10.37,2013-07-08 22:29:00,
2013-07-08 17:34:00,87.8,74.1,30.00,West,267,1.1,1.1,64,0.00,CLR,,0.00,WeatherDisplay:10.37,2013-07-08 22:34:00,
2013-07-08 17:39:00,88.3,74.6,29.99,NE,36,3.5,3.5,64,0.00,CLR,,0.00,WeatherDisplay:10.37,2013-07-08 22:39:00,
2013-07-08 17:44:00,87.8,73.6,29.99,ESE,122,11.5,11.5,63,0.00,CLR,,0.00,WeatherDisplay:10.37,2013-07-08 22:44:00,
2013-07-08 17:49:00,87.9,74.7,29.99,East,86,11.5,11.5,65,0.00,CLR,,0.00,WeatherDisplay:10.37,2013-07-08 22:49:00,
2013-07-08 17:55:00,87.7,74.9,29.99,East,79,11.5,11.5,66,0.00,CLR,,0.00,WeatherDisplay:10.37,2013-07-08 22:55:00,
2013-07-08 18:00:00,87.3,75.0,29.99,NNE,32,9.2,9.2,67,0.00,CLR,,0.00,WeatherDisplay:10.37,2013-07-08 23:00:00,
2013-07-08 18:05:00,87.1,74.8,29.99,ENE,75,8.1,8.1,67,0.00,CLR,,0.00,WeatherDisplay:10.37,2013-07-08 23:05:00,
2013-07-08 18:10:00,87.1,74.8,29.99,ENE,65,6.9,6.9,67,0.00,CLR,,0.00,WeatherDisplay:10.37,2013-07-08 23:10:00,
2013-07-08 18:16:00,87.2,74.9,29.99,ENE,68,10.4,10.4,67,0.00,CLR,,0.00,WeatherDisplay:10.37,2013-07-08 23:16:00,
2013-07-08 18:21:00,86.9,74.6,29.99,ENE,66,11.5,11.5,67,0.00,CLR,,0.00,WeatherDisplay:10.37,2013-07-08 23:21:00,
2013-07-08 18:27:00,86.8,75.0,29.99,ENE,70,8.0,8.0,68,0.00,CLR,,0.00,WeatherDisplay:10.37,2013-07-08 23:27:00,
2013-07-08 18:33:00,86.9,75.1,29.99,East,85,12.7,12.7,68,0.00,CLR,,0.00,WeatherDisplay:10.37,2013-07-08 23:33:00,
2013-07-08 18:38:00,87.0,75.2,29.98,ENE,77,8.1,8.1,68,0.00,CLR,,0.00,WeatherDisplay:10.37,2013-07-08 23:38:00,
2013-07-08 18:44:00,87.0,75.2,29.98,ENE,75,10.4,10.4,68,0.00,CLR,,0.00,WeatherDisplay:10.37,2013-07-08 23:44:00,
2013-07-08 18:49:00,87.0,75.2,29.98,East,84,10.4,10.4,68,0.00,CLR,,0.00,WeatherDisplay:10.37,2013-07-08 23:49:00,
2013-07-08 18:55:00,87.2,75.3,29.98,East,86,5.0,5.0,68,0.00,CLR,,0.00,WeatherDisplay:10.37,2013-07-08 23:55:00,
2013-07-08 19:01:00,87.5,74.7,29.98,East,91,11.5,11.5,66,0.00,CLR,,0.00,WeatherDisplay:10.37,2013-07-09 00:01:00,
2013-07-08 19:06:00,87.7,74.0,29.99,East,79,12.7,12.7,64,0.00,CLR,,0.00,WeatherDisplay:10.37,2013-07-09 00:06:00,
2013-07-08 19:12:00,87.7,73.5,29.99,East,99,9.2,9.2,63,0.00,CLR,,0.00,WeatherDisplay:10.37,2013-07-09 00:12:00,
2013-07-08 19:17:00,87.7,73.5,29.99,ESE,115,12.7,12.7,63,0.00,CLR,,0.00,WeatherDisplay:10.37,2013-07-09 00:17:00,
2013-07-08 19:23:00,87.7,74.0,29.99,East,85,6.9,6.9,64,0.00,CLR,,0.00,WeatherDisplay:10.37,2013-07-09 00:23:00,
2013-07-08 19:28:00,87.7,73.5,29.99,ESE,106,10.4,10.4,63,0.00,CLR,,0.00,WeatherDisplay:10.37,2013-07-09 00:28:00,
2013-07-08 19:34:00,87.7,73.5,29.99,ESE,122,8.1,8.1,63,0.00,CLR,,0.00,WeatherDisplay:10.37,2013-07-09 00:34:00,
2013-07-08 19:39:00,87.5,73.8,29.99,ENE,75,10.4,10.4,64,0.00,CLR,,0.00,WeatherDisplay:10.37,2013-07-09 00:39:00,
2013-07-08 19:45:00,87.4,73.7,29.99,East,86,11.5,11.5,64,0.00,CLR,,0.00,WeatherDisplay:10.37,2013-07-09 00:45:00,
2013-07-08 19:51:00,87.2,73.5,29.99,ENE,71,10.4,10.4,64,0.00,CLR,,0.00,WeatherDisplay:10.37,2013-07-09 00:51:00,
2013-07-08 19:56:00,87.2,73.5,29.99,ESE,112,8.1,8.1,64,0.00,CLR,,0.00,WeatherDisplay:10.37,2013-07-09 00:56:00,
2013-07-08 20:02:00,87.1,73.4,29.99,ESE,103,6.9,6.9,64,0.00,CLR,,0.00,WeatherDisplay:10.37,2013-07-09 01:02:00,
2013-07-08 20:07:00,87.0,72.9,30.00,SE,124,11.5,11.5,63,0.00,CLR,,0.00,WeatherDisplay:10.37,2013-07-09 01:07:00,
2013-07-08 20:12:00,87.0,72.4,30.00,SSE,166,11.5,11.5,62,0.00,CLR,,0.00,WeatherDisplay:10.37,2013-07-09 01:12:00,
2013-07-08 20:17:00,85.0,73.7,30.01,SSW,208,15.0,15.0,69,0.00,CLR,,0.00,WeatherDisplay:10.37,2013-07-09 01:17:00,
2013-07-08 20:22:00,82.8,73.7,30.01,SW,223,11.5,11.5,74,0.00,CLR,,0.00,WeatherDisplay:10.37,2013-07-09 01:22:00,
2013-07-08 20:27:00,81.9,73.6,30.01,South,170,4.6,4.6,76,0.00,CLR,,0.00,WeatherDisplay:10.37,2013-07-09 01:27:00,
2013-07-08 20:33:00,81.5,74.0,30.01,SW,216,5.8,5.8,78,0.00,CLR,,0.00,WeatherDisplay:10.37,2013-07-09 01:33:00,
2013-07-08 20:38:00,81.3,73.8,30.01,SW,224,3.5,3.5,78,0.00,CLR,,0.00,WeatherDisplay:10.37,2013-07-09 01:38:00,
2013-07-08 20:46:00,81.3,73.8,30.02,SW,225,3.5,3.5,78,0.00,CLR,,0.00,WeatherDisplay:10.37,2013-07-09 01:46:00,
2013-07-08 20:51:00,81.0,73.9,30.02,SW,216,5.8,5.8,79,0.00,CLR,,0.00,WeatherDisplay:10.37,2013-07-09 01:51:00,
2013-07-08 20:57:00,80.9,74.1,30.02,SSW,208,5.0,5.0,80,0.00,CLR,,0.00,WeatherDisplay:10.37,2013-07-09 01:57:00,
2013-07-08 21:02:00,80.7,74.3,30.02,South,176,1.0,0.0,81,0.00,CLR,,0.00,WeatherDisplay:10.37,2013-07-09 02:02:00,
2013-07-08 21:08:00,80.2,74.9,30.02,SW,224,0.0,0.0,84,0.01,RA,,0.01,WeatherDisplay:10.37,2013-07-09 02:08:00,
2013-07-08 21:14:00,79.4,74.5,30.03,SW,215,0.0,0.0,85,0.01,RA,,0.01,WeatherDisplay:10.37,2013-07-09 02:14:00,
2013-07-08 21:20:00,78.9,74.4,30.03,SW,226,2.3,2.3,86,0.01,CLR,,0.01,WeatherDisplay:10.37,2013-07-09 02:20:00,
2013-07-08 21:25:00,78.9,74.7,30.03,SSW,207,5.8,5.8,87,0.01,CLR,,0.01,WeatherDisplay:10.37,2013-07-09 02:25:00,
2013-07-08 21:31:00,78.9,74.7,30.03,South,183,3.5,3.5,87,0.01,CLR,,0.01,WeatherDisplay:10.37,2013-07-09 02:31:00,
2013-07-08 21:36:00,78.8,74.6,30.04,SSE,153,2.3,2.3,87,0.01,CLR,,0.01,WeatherDisplay:10.37,2013-07-09 02:36:00,
2013-07-08 21:41:00,78.8,74.6,30.04,SSE,153,0.0,0.0,87,0.01,CLR,,0.01,WeatherDisplay:10.37,2013-07-09 02:41:00,
2013-07-08 21:47:00,78.7,74.5,30.05,SE,131,0.0,0.0,87,0.01,CLR,,0.01,WeatherDisplay:10.37,2013-07-09 02:47:00,
2013-07-08 21:52:00,79.1,74.2,30.05,SE,136,4.0,4.0,85,0.01,CLR,,0.01,WeatherDisplay:10.37,2013-07-09 02:52:00,
2013-07-08 21:58:00,79.9,73.2,30.05,SE,129,8.1,8.1,80,0.01,CLR,,0.01,WeatherDisplay:10.37,2013-07-09 02:58:00,
2013-07-08 22:03:00,80.7,72.8,30.05,SE,131,8.1,8.1,77,0.01,CLR,,0.01,WeatherDisplay:10.37,2013-07-09 03:03:00,
2013-07-08 22:08:00,81.3,72.6,30.06,SE,129,12.7,12.7,75,0.00,CLR,,0.01,WeatherDisplay:10.37,2013-07-09 03:08:00,
2013-07-08 22:14:00,81.5,72.4,30.06,SE,145,11.5,11.5,74,0.00,CLR,,0.01,WeatherDisplay:10.37,2013-07-09 03:14:00,
2013-07-08 22:19:00,81.6,72.5,30.06,SE,131,8.1,8.1,74,0.00,CLR,,0.01,WeatherDisplay:10.37,2013-07-09 03:19:00,
2013-07-08 22:24:00,81.5,72.4,30.06,SSE,150,8.1,8.1,74,0.00,CLR,,0.01,WeatherDisplay:10.37,2013-07-09 03:24:00,
2013-07-08 22:29:00,81.4,72.3,30.06,SSE,160,4.6,4.6,74,0.00,CLR,,0.01,WeatherDisplay:10.37,2013-07-09 03:29:00,
2013-07-08 22:34:00,81.4,72.3,30.06,SSE,159,8.1,8.1,74,0.00,CLR,,0.01,WeatherDisplay:10.37,2013-07-09 03:34:00,
2013-07-08 22:39:00,81.5,72.0,30.07,SSE,150,8.1,8.1,73,0.00,CLR,,0.01,WeatherDisplay:10.37,2013-07-09 03:39:00,
2013-07-08 22:45:00,81.5,72.0,30.07,SE,131,10.4,10.4,73,0.00,CLR,,0.01,WeatherDisplay:10.37,2013-07-09 03:45:00,
2013-07-08 22:51:00,81.4,72.3,30.07,SE,143,5.8,5.8,74,0.00,CLR,,0.01,WeatherDisplay:10.37,2013-07-09 03:51:00,
2013-07-08 22:56:00,81.3,72.2,30.07,SE,142,9.2,9.2,74,0.00,CLR,,0.01,WeatherDisplay:10.37,2013-07-09 03:56:00,
2013-07-08 23:01:00,81.2,72.5,30.07,SE,145,8.1,8.1,75,0.00,CLR,,0.01,WeatherDisplay:10.37,2013-07-09 04:01:00,
2013-07-08 23:02:00,81.2,72.5,30.07,SSE,165,8.1,8.1,75,0.00,CLR,,0.01,WeatherDisplay:10.37,2013-07-09 04:02:00,
2013-07-08 23:07:00,81.1,72.4,30.07,SE,131,9.2,9.2,75,0.00,CLR,,0.01,WeatherDisplay:10.37,2013-07-09 04:07:00,
2013-07-08 23:12:00,81.0,72.7,30.07,SSE,150,10.4,10.4,76,0.00,CLR,,0.01,WeatherDisplay:10.37,2013-07-09 04:12:00,
2013-07-08 23:17:00,80.9,72.6,30.07,SE,138,10.4,10.4,76,0.00,CLR,,0.01,WeatherDisplay:10.37,2013-07-09 04:17:00,
2013-07-08 23:22:00,80.8,72.9,30.07,SE,133,11.5,11.5,77,0.00,CLR,,0.01,WeatherDisplay:10.37,2013-07-09 04:22:00,
2013-07-08 23:27:00,80.7,73.2,30.07,SE,143,10.4,10.4,78,0.00,CLR,,0.01,WeatherDisplay:10.37,2013-07-09 04:27:00,
2013-07-08 23:32:00,80.6,73.5,30.07,SE,131,8.1,8.1,79,0.00,CLR,,0.01,WeatherDisplay:10.37,2013-07-09 04:32:00,
2013-07-08 23:37:00,80.5,73.4,30.08,SE,135,11.5,11.5,79,0.00,CLR,,0.01,WeatherDisplay:10.37,2013-07-09 04:37:00,
2013-07-08 23:42:00,80.4,73.7,30.08,SE,139,11.5,11.5,80,0.00,CLR,,0.01,WeatherDisplay:10.37,2013-07-09 04:42:00,
2013-07-08 23:47:00,80.3,73.9,30.08,SE,138,8.1,8.1,81,0.00,CLR,,0.01,WeatherDisplay:10.37,2013-07-09 04:47:00,
2013-07-08 23:52:00,80.1,73.7,30.08,SSE,152,8.1,8.1,81,0.00,CLR,,0.01,WeatherDisplay:10.37,2013-07-09 04:52:00,
2013-07-08 23:57:00,80.0,74.0,30.08,SSE,152,6.9,6.9,82,0.00,CLR,,0.01,WeatherDisplay:10.37,2013-07-09 04:57:00,